Theta_e
315 315 315 314 315 316 319 323 326 327 330 331 331 332 332 332 331 330 330 329 330 331 331 327 317 316 318 316 318 321 321 321 321 321 321 320 321 324 321 318 321 321 319 319 320 322 323 323 324 322 325 329 328 331 327 319 317 318 321 321 319 320 319 317 318 316 315 316 315 314 314 320 320 314 316 319 320 322 324 325 326 327 327 329 329 328 333 337
316 315 315 314 314 314 315 319 323 325 328 331 331 332 332 331 330 330 329 329 330 330 330 322 314 319 319 320 323 322 321 321 322 322 320 319 321 324 321 317 321 322 321 321 322 323 324 326 325 325 332 333 327 329 328 321 318 318 319 320 320 320 317 316 316 314 314 314 313 314 313 316 318 316 317 319 320 322 323 324 326 328 328 330 330 331 335 336
315 314 314 314 313 314 313 316 321 323 326 330 331 331 332 331 330 329 329 329 329 330 327 317 314 319 319 322 323 319 320 321 322 322 320 319 320 321 319 318 319 320 320 321 323 323 322 325 323 328 336 333 325 326 327 322 319 318 318 320 320 318 316 314 314 313 312 312 313 314 311 313 316 315 318 319 321 322 321 322 325 327 328 330 331 333 335 335
313 312 312 313 312 313 314 314 317 320 324 328 330 331 331 331 330 329 329 329 329 329 325 316 315 318 318 321 321 319 321 321 321 321 320 319 321 320 318 318 318 318 320 320 322 322 322 324 324 329 334 332 326 325 326 321 318 318 317 320 318 315 316 314 313 312 310 310 312 313 311 313 314 314 317 318 320 321 320 321 322 323 326 330 331 333 335 336
310 309 310 312 312 312 313 313 314 316 320 326 330 331 331 331 330 329 329 329 328 327 323 315 314 317 317 318 319 319 320 322 322 321 320 320 321 320 317 317 316 318 321 321 322 323 324 325 325 328 330 331 328 327 326 317 313 317 317 316 315 313 314 313 311 310 309 309 311 312 312 314 313 313 317 318 318 319 318 320 320 321 326 330 331 333 335 335
310 310 310 311 311 312 313 313 312 312 315 321 329 331 330 330 329 329 329 328 327 326 322 315 314 315 315 316 319 319 319 323 322 319 320 321 322 318 315 316 317 321 322 323 324 324 325 324 324 327 329 331 329 328 324 314 312 320 317 312 312 312 312 311 310 309 308 309 312 313 312 312 312 314 315 316 319 316 314 316 316 320 327 332 332 333 335 335
314 313 311 310 311 311 310 311 312 311 312 317 325 329 330 330 329 329 328 328 326 325 322 317 315 315 315 318 320 318 317 321 320 319 320 322 320 315 314 316 320 322 323 324 325 325 325 324 325 326 329 331 330 329 322 314 312 319 319 312 311 311 310 310 309 308 307 309 311 310 311 312 313 315 313 314 318 313 315 317 313 318 329 332 332 333 335 335
315 312 309 308 310 310 309 311 312 312 312 314 320 326 329 329 328 328 327 328 326 324 322 317 315 316 318 321 320 317 317 319 319 318 320 322 318 313 316 319 322 322 323 325 325 326 324 324 326 325 328 329 329 328 320 317 317 319 320 313 309 309 310 310 308 307 307 308 308 308 311 313 312 312 310 313 316 313 319 322 317 322 329 330 331 332 335 336
315 311 309 310 311 311 311 313 313 313 313 314 318 322 327 328 328 328 328 328 326 324 320 316 317 318 319 320 318 317 317 318 320 320 321 322 317 316 320 321 323 323 324 325 325 327 324 325 326 324 328 326 327 326 319 322 324 322 320 314 312 312 311 309 309 308 308 308 308 310 313 312 309 309 312 313 314 316 320 324 323 326 327 328 331 332 335 336
316 313 311 310 311 311 311 312 313 314 314 315 317 320 324 328 329 328 328 327 326 325 319 317 319 318 319 320 318 319 319 318 320 322 323 322 317 319 322 322 324 324 325 325 325 326 324 326 326 324 326 324 325 324 321 324 320 317 316 314 313 313 311 309 310 310 308 309 308 312 314 311 308 309 315 313 312 316 320 324 326 325 326 328 330 331 334 335
316 315 312 310 310 309 309 310 312 313 314 314 316 318 322 327 329 328 328 327 326 325 320 318 318 318 320 320 318 320 321 318 321 324 322 319 319 321 323 323 324 324 324 324 325 326 325 325 324 325 326 323 323 320 320 320 315 312 312 315 314 313 313 309 311 310 311 313 309 311 313 311 309 310 316 312 310 316 319 325 326 325 326 328 329 330 333 334
315 314 313 312 312 312 311 311 312 313 313 313 314 315 319 326 328 327 327 326 325 323 320 319 317 319 322 320 319 321 321 319 323 325 319 318 320 322 323 324 324 325 325 324 324 323 324 324 323 325 324 322 322 320 320 317 314 314 314 321 320 318 319 313 311 310 312 314 309 310 313 312 312 312 314 312 313 318 318 322 325 325 327 328 330 330 331 333
314 314 313 312 311 312 313 312 312 313 313 314 314 313 316 324 327 327 326 325 323 320 318 319 319 322 323 321 320 321 321 319 323 324 318 319 321 321 323 324 324 325 326 325 324 322 323 324 324 323 320 321 320 318 319 314 315 319 317 322 322 323 324 314 309 308 311 313 309 310 315 315 316 314 313 313 315 318 317 320 322 324 326 327 329 328 329 331
314 313 311 309 307 309 312 312 312 312 313 315 316 313 314 321 327 327 325 324 321 318 319 320 322 323 323 321 320 321 321 320 324 323 318 319 320 318 320 322 324 325 326 326 324 322 322 323 322 319 317 318 317 315 316 315 318 321 320 322 322 326 325 313 309 310 313 311 307 311 315 316 317 316 313 314 317 317 315 317 320 323 324 325 328 328 329 330
313 313 309 307 306 306 307 309 310 311 312 315 316 315 315 319 326 326 324 323 320 319 321 322 323 323 321 320 319 321 322 322 325 323 318 320 319 317 317 319 321 323 324 323 322 321 321 321 320 318 315 314 314 316 317 317 317 319 324 326 323 325 326 318 311 309 313 310 307 312 315 315 316 314 309 309 315 316 314 315 318 322 323 324 326 327 329 329
312 312 311 308 309 310 308 308 310 310 312 314 314 315 315 317 323 326 324 323 319 319 322 322 322 322 321 322 320 321 324 325 326 323 319 320 320 318 316 318 318 319 320 319 319 319 319 319 317 316 314 313 317 320 321 321 320 318 324 328 324 323 325 322 313 306 310 310 309 312 313 315 314 312 307 306 314 316 314 315 316 319 321 322 325 326 328 329
311 312 312 308 309 313 314 312 312 311 313 314 313 313 313 313 319 325 324 322 320 320 321 322 322 321 322 322 321 322 324 325 324 321 318 319 321 317 316 318 317 317 316 315 317 317 316 316 315 316 316 316 319 322 326 329 327 321 321 325 322 320 322 323 317 308 308 310 311 312 311 314 313 312 309 308 313 316 314 315 315 316 319 321 324 325 326 327
309 311 312 309 308 310 312 313 314 314 314 315 315 315 314 313 316 322 325 323 322 321 321 322 321 324 325 321 322 324 323 323 323 320 318 319 320 317 316 317 316 317 315 315 316 315 316 315 315 319 318 318 319 323 330 331 329 324 322 325 321 317 318 321 319 311 309 310 311 312 311 313 313 313 312 311 312 314 313 314 315 315 316 318 322 323 325 326
307 309 311 311 311 309 307 308 311 314 314 314 316 315 314 314 314 319 324 323 323 323 323 323 322 324 326 322 322 323 323 323 321 319 317 317 318 317 316 317 317 318 317 318 317 314 316 316 317 322 321 319 320 324 329 328 328 325 321 324 324 321 319 317 316 311 308 311 312 312 313 312 313 313 313 312 311 312 313 313 314 315 315 315 317 320 323 324
307 308 309 310 312 311 306 304 309 313 313 313 314 313 314 315 314 317 321 323 323 323 323 323 322 321 322 321 322 322 322 322 321 318 316 316 317 317 316 318 319 319 319 320 318 314 317 320 320 323 322 320 320 324 325 324 324 322 320 322 322 324 323 315 313 309 307 312 313 312 313 313 313 313 314 312 310 311 312 312 313 314 315 315 315 317 320 322
306 307 308 309 310 312 309 307 310 310 309 311 312 313 315 314 314 314 319 324 323 321 323 322 320 320 321 321 322 321 321 321 319 317 316 316 317 318 318 318 321 323 323 319 316 314 317 322 323 322 322 321 321 322 322 322 322 321 321 322 320 321 321 314 311 309 307 311 314 311 311 313 313 313 313 312 310 311 311 312 313 313 313 314 314 316 317 318
305 306 307 308 308 311 311 311 313 310 307 309 311 314 315 313 313 312 315 322 324 321 322 322 320 321 321 321 322 321 321 321 320 317 315 316 319 320 319 320 323 323 321 317 316 317 319 322 323 321 320 320 319 320 321 322 322 322 321 321 322 318 317 314 310 308 308 310 313 311 310 312 312 313 313 312 312 312 312 312 313 313 313 313 313 314 315 315
305 304 306 308 308 309 311 313 314 312 310 311 311 312 313 313 312 311 312 317 323 323 322 322 321 320 321 321 322 321 321 321 321 317 314 316 320 320 319 322 324 321 319 318 319 321 321 322 322 319 318 318 318 319 321 321 321 323 322 323 323 317 318 321 312 308 308 309 311 311 310 312 312 312 312 313 312 311 312 312 312 312 313 313 314 314 314 314
305 304 306 308 309 309 311 312 311 308 308 310 310 311 312 312 311 312 310 310 317 322 322 322 320 320 321 321 321 321 321 321 320 317 314 317 320 319 319 322 323 320 319 320 320 321 322 321 319 318 317 318 318 318 320 322 321 321 321 324 323 316 317 320 312 309 309 308 309 310 313 315 314 314 314 314 313 311 311 310 310 311 311 312 313 313 312 312
306 305 306 307 309 309 310 312 309 305 306 307 308 310 311 311 310 311 310 309 315 321 323 321 320 321 320 320 322 321 321 321 320 317 314 317 319 318 320 320 321 321 319 319 321 321 320 317 317 318 317 318 318 318 320 323 323 321 320 322 322 318 315 314 311 312 314 313 310 310 318 321 316 315 315 314 313 312 311 310 311 312 312 311 310 310 311 312
307 306 306 307 309 310 310 311 310 308 310 309 309 311 311 311 311 310 310 312 316 321 324 322 322 323 321 321 322 320 323 322 318 316 315 317 318 318 321 318 317 321 320 318 321 321 317 314 317 319 318 319 320 319 320 322 325 324 320 318 319 319 316 314 313 316 319 318 311 309 317 321 316 315 315 313 312 312 313 312 311 312 312 311 310 311 312 311
308 308 307 308 310 310 310 311 311 310 311 312 312 313 312 311 311 309 312 315 317 320 324 322 322 324 322 322 320 320 325 322 316 316 314 316 316 317 321 318 316 319 318 319 324 320 315 315 318 319 319 320 321 321 319 320 326 326 320 317 316 317 318 317 315 316 316 314 312 311 313 315 314 315 315 314 312 312 312 313 312 312 312 311 311 311 312 311
308 309 309 309 310 310 309 311 311 311 312 312 312 313 312 311 310 310 314 319 319 320 323 320 319 320 321 321 320 321 322 319 319 318 313 314 315 315 320 319 318 319 316 321 326 319 314 317 319 318 320 321 321 322 318 320 324 320 316 316 316 316 318 317 316 316 312 312 315 314 312 314 316 315 313 312 312 313 314 314 314 313 313 314 312 311 312 311
307 308 309 310 310 310 310 311 311 311 312 310 309 311 311 310 310 312 315 319 320 320 321 319 318 320 322 322 321 320 319 319 321 318 313 312 312 313 318 318 317 317 315 318 322 317 313 315 317 319 322 321 320 319 318 320 321 314 313 316 315 315 315 314 315 315 311 312 317 315 313 315 318 317 314 312 312 314 315 314 314 314 316 317 316 315 313 310
305 307 308 309 309 309 309 310 311 311 312 310 307 309 310 310 311 314 317 319 319 319 319 319 320 322 324 323 321 320 319 319 318 316 315 314 311 311 315 316 318 319 316 315 316 313 309 310 314 318 319 317 315 315 316 320 317 312 313 316 315 314 313 312 313 313 314 317 317 315 314 314 318 319 318 316 313 313 315 314 314 314 314 316 317 316 313 309
303 305 306 308 308 308 308 308 309 311 312 311 308 309 310 311 312 316 318 318 318 318 318 320 321 323 324 323 322 321 321 318 316 316 317 315 311 313 316 316 318 320 319 317 314 310 310 312 314 314 312 313 314 313 313 314 314 313 314 316 317 314 312 313 313 313 319 322 316 311 310 312 317 319 316 315 312 311 313 313 314 314 313 316 317 315 312 310
302 303 305 307 307 307 308 308 308 310 311 310 309 310 311 311 314 318 318 318 318 317 318 321 323 323 324 323 322 322 322 319 316 316 317 316 313 315 319 319 318 321 323 322 316 311 312 313 312 311 310 313 317 317 313 311 312 314 313 316 320 317 318 321 317 315 320 320 311 307 308 311 316 316 314 313 312 311 311 311 313 314 312 314 315 313 311 311
302 302 303 305 306 307 308 308 308 309 310 310 309 310 312 313 315 318 317 316 318 317 317 320 323 323 324 324 323 322 322 320 318 317 317 316 315 316 319 318 317 323 325 321 316 313 313 312 310 312 311 312 317 319 316 312 311 313 314 319 322 320 325 329 323 319 321 316 308 306 309 313 315 315 313 314 314 313 312 310 311 311 310 311 311 310 309 310
302 301 302 303 304 306 307 308 308 308 309 310 310 310 312 315 316 318 316 314 316 318 318 320 323 323 324 324 322 321 322 321 318 319 318 317 318 319 319 317 317 320 321 318 316 316 319 317 313 313 313 312 316 318 318 315 312 313 316 319 321 321 327 330 326 324 322 315 308 307 312 318 317 314 311 310 311 311 310 309 308 308 308 308 308 308 309 310
301 301 301 301 302 305 306 307 309 308 308 310 310 310 313 316 316 317 315 313 316 318 318 320 323 325 325 322 321 320 321 321 320 320 319 317 319 320 319 318 318 318 319 320 318 318 322 318 311 311 312 312 315 316 315 316 314 315 314 316 320 320 320 320 318 317 316 315 312 310 313 315 313 313 311 311 310 309 310 309 307 307 307 307 308 309 310 311
300 300 300 300 301 303 303 305 308 308 309 310 311 311 313 315 315 315 315 314 316 318 319 321 323 325 325 321 321 321 319 320 321 321 320 318 319 320 319 318 317 317 319 321 318 318 323 317 308 309 311 310 314 314 313 317 317 314 313 314 316 315 313 314 312 309 311 319 318 312 312 313 312 314 313 313 313 311 311 309 307 309 309 309 312 313 312 311
300 300 300 300 300 301 302 304 307 308 309 310 311 311 312 312 311 312 314 315 317 318 319 322 323 323 323 321 321 321 319 320 321 321 321 320 319 320 319 319 317 317 318 318 316 317 319 315 308 309 311 310 312 312 311 314 315 315 315 314 313 312 312 314 314 312 313 320 319 312 313 315 315 317 314 311 312 311 312 311 309 310 311 311 315 318 317 314
300 300 301 300 299 300 301 303 306 308 309 309 309 310 310 311 310 310 313 315 316 319 320 321 322 320 320 321 321 320 321 322 322 322 321 320 321 320 318 319 318 317 316 316 317 316 316 314 309 308 310 309 309 312 313 311 311 313 315 314 314 317 316 314 313 315 316 319 317 312 311 312 313 316 314 310 310 311 312 312 311 310 311 311 314 318 316 313
300 300 300 300 299 299 300 303 306 308 309 308 308 309 309 310 310 311 313 314 315 319 320 321 320 317 318 320 320 320 322 322 322 322 322 321 321 319 318 318 318 316 314 314 316 315 314 316 312 308 309 309 308 311 315 313 310 310 312 313 312 314 316 315 313 315 318 318 317 315 313 313 314 314 313 314 313 312 314 314 313 313 312 311 312 315 315 311
300 300 301 300 299 299 301 304 306 307 308 308 307 309 310 310 310 311 314 314 315 318 319 320 319 317 317 318 320 321 322 322 321 322 322 320 320 318 318 317 317 316 313 312 314 314 312 314 314 309 308 310 311 312 315 314 311 311 313 314 312 311 312 314 314 312 315 316 316 316 317 316 313 311 312 314 314 314 315 315 316 316 313 311 312 315 315 312
300 300 302 301 300 300 303 305 305 306 307 308 307 308 310 311 310 311 313 314 315 317 317 318 319 319 318 318 320 322 322 321 321 322 321 320 319 318 318 317 317 316 312 311 313 314 312 313 314 310 309 311 312 312 314 314 313 313 314 315 316 313 312 317 318 311 310 313 313 313 316 316 312 310 311 312 313 313 314 314 315 314 312 313 316 315 313 313
300 300 302 301 300 302 305 305 305 306 307 307 307 307 309 311 310 311 313 313 314 315 314 316 318 318 318 319 320 322 323 321 321 321 321 320 319 317 317 316 315 314 312 313 314 313 312 312 312 311 311 311 310 308 309 313 314 314 313 314 316 315 313 318 321 313 309 310 310 310 313 316 313 312 311 310 312 312 312 312 311 311 311 314 316 313 313 313
299 300 302 301 301 304 305 304 305 306 306 306 306 307 309 310 310 311 312 313 313 313 313 314 317 317 318 319 320 321 322 321 321 321 320 321 318 314 315 316 314 312 312 313 313 312 312 313 312 311 310 310 309 307 307 309 311 312 312 311 313 315 315 314 314 312 312 312 311 312 316 317 314 313 311 310 310 310 308 307 307 308 311 313 315 316 316 315
300 301 302 301 302 304 305 305 305 305 305 306 306 306 308 310 310 310 311 312 313 313 312 313 316 318 318 319 319 321 322 322 322 320 320 320 316 313 314 314 314 313 312 313 313 313 314 314 313 312 312 312 311 310 310 309 309 311 312 310 311 313 313 310 309 310 312 314 314 315 319 317 311 311 310 307 308 307 306 305 306 310 314 316 317 319 317 317
300 301 301 301 303 305 305 304 304 305 305 306 306 307 307 309 311 311 311 311 312 312 313 314 317 318 318 319 320 320 321 322 322 319 318 317 313 312 313 313 313 313 314 317 317 314 314 315 314 314 314 315 314 313 313 312 310 310 311 310 311 313 312 311 311 311 313 315 315 316 318 314 309 308 309 307 308 308 307 307 307 309 313 316 317 318 317 318
300 300 301 301 301 303 304 305 304 305 305 305 306 307 307 308 310 311 311 312 311 312 313 314 317 317 317 318 320 321 321 321 320 319 318 315 311 310 313 314 313 314 319 321 318 314 314 314 314 316 316 315 317 317 315 314 311 311 312 312 312 313 313 313 313 313 314 315 315 316 316 314 311 308 308 309 309 309 309 309 309 309 312 314 316 317 317 318
300 300 300 301 301 301 303 305 304 305 305 305 306 307 307 307 308 310 311 312 312 313 313 313 315 317 318 317 317 320 321 318 318 319 317 314 311 309 311 313 313 316 320 319 315 315 316 315 314 316 317 316 317 318 316 314 313 312 313 313 313 312 313 314 315 315 315 314 315 316 315 315 314 309 309 310 310 312 310 308 310 313 314 315 317 319 318 319
299 300 300 301 302 302 303 304 305 305 305 305 306 306 307 307 308 309 311 312 312 313 313 314 314 315 317 317 317 319 320 317 318 319 315 312 311 310 310 312 314 317 317 314 313 315 316 316 316 316 316 315 314 314 315 314 313 313 313 313 313 313 313 314 315 315 314 314 316 318 317 316 314 310 310 312 313 313 310 309 311 312 313 313 316 319 320 320
298 300 301 301 302 303 303 303 304 305 305 306 306 306 307 307 307 308 311 312 312 313 314 314 314 314 316 317 318 319 319 318 318 318 314 312 312 311 310 312 313 314 313 312 312 313 314 316 316 314 314 314 312 313 314 314 314 313 313 313 313 313 313 313 313 314 314 314 315 317 318 316 314 312 311 312 312 311 309 309 309 309 311 314 315 318 319 320
298 299 301 301 302 302 302 303 304 305 305 306 306 306 307 307 307 307 309 312 312 313 314 314 314 315 315 316 319 319 318 318 319 317 314 313 313 312 312 313 312 311 312 312 312 312 314 315 314 312 312 311 310 311 313 315 315 314 314 314 313 313 313 313 313 313 314 314 314 314 316 315 314 312 312 312 312 311 310 310 309 310 314 315 315 317 318 319
298 299 300 301 301 301 302 303 305 305 305 305 306 307 306 307 307 307 308 311 312 312 313 314 314 315 316 315 318 319 317 317 318 316 314 314 314 314 314 313 312 311 312 313 312 312 312 312 311 311 312 311 309 310 311 312 313 313 314 314 313 313 313 313 313 313 313 314 314 314 315 314 312 312 312 312 311 311 312 312 312 314 316 314 312 314 316 316
297 298 299 300 300 300 301 302 304 305 305 305 306 307 307 307 307 306 308 310 311 312 313 313 313 315 316 316 316 317 317 317 317 315 314 314 313 314 315 314 312 311 312 312 312 312 311 311 310 312 314 313 309 309 310 312 312 313 313 313 313 313 313 312 313 313 313 313 314 314 314 313 312 311 311 310 310 312 312 312 312 314 314 313 311 311 312 312
Wind_Speed
27 25 23 20 21 20 18 23 28 32 41 46 45 44 43 41 40 39 38 38 35 34 32 30 31 30 30 28 25 23 23 23 20 20 18 18 23 24 21 18 21 23 22 23 21 17 12 8 9 7 4 4 3 2 4 3 1 1 1 2 3 2 1 1 2 2 1 3 4 1 4 7 4 4 2 2 4 1 3 4 2 2 3 3 2 2 10 20
25 22 18 15 16 18 16 17 24 28 36 45 46 44 44 43 41 39 39 39 36 34 33 32 34 32 30 28 25 24 24 23 19 17 19 19 20 22 23 23 22 22 23 24 20 19 13 6 10 8 3 2 1 3 2 3 3 2 0 2 2 2 2 1 2 2 1 3 5 1 3 5 3 4 5 5 6 4 5 6 4 5 6 4 1 5 15 20
22 16 14 12 12 14 12 12 18 23 30 42 46 44 44 43 41 41 40 39 37 35 35 35 36 33 31 29 25 26 23 17 13 15 22 22 18 21 25 26 23 19 20 20 18 20 18 14 17 11 3 2 1 2 0 1 3 1 1 3 2 3 2 2 1 1 0 3 4 2 2 4 4 2 4 5 4 6 9 8 7 8 9 8 6 10 17 19
22 18 15 13 13 13 11 11 14 17 22 36 45 44 44 44 42 42 40 39 39 36 36 37 37 34 32 30 27 25 18 9 9 15 23 24 20 21 25 27 25 21 19 18 18 21 22 20 18 9 4 2 1 0 3 1 1 1 2 2 3 3 2 4 3 0 1 2 3 2 1 4 3 2 4 5 5 7 10 10 10 11 10 11 9 13 19 19
24 26 23 19 18 15 13 12 12 12 13 25 43 45 42 44 43 42 41 40 40 38 38 39 37 35 33 29 27 24 15 6 9 17 24 25 23 23 26 28 27 24 22 19 18 20 22 20 13 5 3 3 2 3 4 3 1 2 1 2 3 2 1 3 3 1 1 2 1 1 1 1 2 4 7 8 9 5 3 5 9 8 8 12 12 16 19 19
24 28 29 23 20 18 16 14 14 14 11 16 36 46 44 44 43 43 41 41 40 39 40 39 39 36 33 29 26 23 14 4 5 19 26 24 24 26 28 28 26 23 20 21 21 19 18 16 13 6 3 2 4 4 4 4 1 4 2 1 1 2 1 2 3 2 2 3 2 1 0 0 2 5 5 11 14 2 5 3 3 3 6 12 14 16 18 19
28 29 27 23 21 21 18 16 17 16 13 14 24 40 46 44 43 44 41 41 41 40 41 40 39 37 33 30 24 18 13 3 4 20 28 24 25 26 27 25 23 22 20 22 22 17 14 13 11 8 5 2 2 2 3 3 3 4 3 2 2 2 2 0 1 2 2 4 2 1 1 2 6 5 2 9 15 3 5 4 2 1 8 14 14 15 18 20
30 26 21 21 22 20 19 16 14 13 12 13 15 28 43 46 43 43 43 42 42 41 41 40 38 37 35 30 20 11 12 4 5 23 29 24 25 26 25 23 22 23 22 22 19 16 14 12 10 8 6 3 1 2 1 3 4 6 5 3 3 2 3 2 3 3 3 3 1 2 4 3 4 2 2 9 12 6 3 2 2 4 9 12 13 15 17 19
30 26 21 22 21 19 18 14 12 11 9 10 14 19 34 48 45 43 45 42 43 42 41 41 38 38 35 26 15 9 13 8 6 25 32 26 27 27 26 24 24 23 21 18 18 17 12 10 10 6 5 5 4 4 2 4 3 6 5 3 2 3 3 1 4 2 1 2 2 5 5 2 2 1 6 10 7 4 5 4 4 7 8 10 11 13 16 17
29 28 25 24 23 21 18 15 12 10 8 7 12 16 22 44 49 43 45 43 43 43 42 42 38 38 32 21 14 8 13 12 9 25 33 30 30 28 27 26 25 22 17 14 16 18 11 8 8 6 6 5 4 4 1 3 1 2 4 1 3 4 3 1 2 1 0 2 4 6 4 0 2 2 5 4 1 3 6 5 4 7 8 9 9 11 13 15
26 27 27 27 24 23 22 19 16 11 10 6 7 12 15 35 49 45 45 44 43 43 43 43 39 38 28 19 14 6 13 16 13 28 33 31 32 28 27 27 24 21 17 13 12 13 12 13 12 6 4 4 5 4 0 2 0 2 2 2 3 4 4 3 3 2 2 2 4 5 5 2 4 5 5 2 3 4 7 5 4 6 6 7 9 8 10 12
25 25 26 28 24 22 22 21 18 13 12 8 7 9 9 28 48 46 44 44 42 42 41 42 41 36 24 16 11 6 16 18 17 32 33 30 32 27 26 25 22 22 19 13 9 10 16 20 15 5 2 6 7 3 2 3 1 1 1 3 2 4 6 4 2 2 3 2 4 3 6 6 8 9 6 3 3 4 6 6 5 6 5 5 7 7 8 10
24 25 24 26 24 21 21 19 18 15 14 10 9 11 9 21 45 45 43 43 42 42 40 41 41 34 22 12 6 8 17 18 21 32 32 31 30 24 25 24 21 21 19 16 11 11 18 20 13 7 3 5 4 2 5 5 2 2 1 2 2 4 4 2 1 1 3 2 4 3 7 7 9 10 6 5 4 5 6 7 6 5 4 5 6 6 7 9
20 22 21 23 23 23 24 21 19 16 14 8 7 12 11 16 42 44 42 44 42 41 39 40 40 30 17 7 4 10 16 18 23 30 30 29 26 20 20 21 20 19 17 17 16 13 17 19 14 10 3 1 4 5 6 5 1 3 3 0 2 3 1 1 1 3 5 2 2 4 7 7 5 6 5 4 4 6 6 7 7 6 5 5 6 7 8 9
19 21 21 22 23 25 26 24 23 19 15 9 6 10 8 12 39 47 42 44 43 42 40 39 35 23 11 4 4 12 17 17 22 29 30 29 26 18 15 19 17 15 14 15 17 16 18 18 13 8 2 1 5 7 5 3 2 2 2 3 2 3 2 1 1 2 2 2 3 6 6 6 7 3 3 2 3 6 8 8 6 6 6 6 6 7 7 8
20 22 23 21 21 23 26 27 27 23 18 14 8 8 6 7 31 50 44 43 44 42 37 31 27 18 9 5 9 14 15 15 20 27 29 29 28 19 17 20 15 13 13 13 17 18 16 13 7 4 4 2 6 7 4 3 2 2 4 3 3 4 2 1 1 0 1 2 5 7 4 3 3 1 3 1 4 6 8 8 6 6 6 6 6 6 7 7
21 20 22 22 19 18 23 24 26 23 17 15 10 9 11 7 19 47 47 42 45 44 34 25 24 15 4 6 12 14 13 13 21 27 27 26 28 25 20 16 12 14 13 12 16 14 7 6 3 2 3 2 5 6 5 5 5 4 4 3 3 4 3 2 2 1 1 2 5 8 7 8 7 4 1 2 3 5 7 8 6 6 5 6 5 6 7 8
21 19 20 23 22 17 19 19 20 20 15 15 12 9 12 7 10 33 47 44 38 34 23 17 21 12 5 10 13 15 16 17 22 26 25 24 27 26 18 12 12 16 14 8 8 5 1 2 3 4 3 3 5 7 7 7 8 7 6 4 3 4 4 4 3 1 1 3 5 7 9 13 13 11 8 4 4 5 6 7 6 6 6 6 6 7 7 8
22 18 17 20 21 19 20 17 15 18 16 15 13 7 8 4 5 14 40 42 24 17 12 12 17 7 5 14 13 17 22 24 25 22 22 24 26 24 17 14 14 14 11 6 4 4 3 3 3 5 6 6 8 11 10 6 6 8 8 5 5 5 4 4 3 1 0 2 6 9 10 13 13 14 14 4 5 5 7 6 5 5 6 6 6 7 7 9
20 18 15 16 19 20 22 21 19 20 18 17 15 7 3 3 3 5 18 27 17 13 13 17 15 3 9 16 17 23 25 24 20 16 21 27 26 21 13 11 9 6 9 9 7 5 4 5 6 7 9 12 15 16 11 3 3 7 7 5 5 5 4 3 3 3 0 3 6 7 9 14 14 13 15 5 4 5 8 8 8 7 6 6 7 8 8 10
19 19 15 16 19 21 23 23 25 24 19 17 15 7 0 4 4 4 3 14 17 10 8 17 11 6 13 21 25 28 19 15 14 12 23 27 24 18 7 7 10 5 7 11 9 4 4 8 9 10 13 15 17 15 9 6 6 7 6 5 5 5 3 2 2 2 2 3 4 3 7 13 13 13 14 7 4 8 11 10 11 10 8 6 7 8 8 8
18 18 17 17 18 20 21 22 25 26 23 19 14 6 2 6 10 2 7 7 16 5 5 17 9 7 17 24 28 29 15 10 13 13 21 24 20 14 7 8 10 6 6 9 8 5 6 7 10 11 11 10 10 10 10 9 9 7 5 4 4 3 2 1 2 2 2 3 3 1 6 11 12 13 12 10 9 11 11 11 12 10 8 8 8 8 7 7
17 18 18 17 17 19 20 20 23 26 23 19 13 6 5 10 15 3 8 1 9 5 7 17 11 11 19 18 26 30 17 11 13 14 20 20 15 11 9 10 9 9 10 9 8 7 6 6 12 12 9 10 9 11 12 9 8 6 6 6 4 4 3 3 3 3 2 2 4 3 7 9 10 11 11 11 11 11 10 10 10 9 9 10 7 5 6 8
16 18 18 18 19 19 19 19 20 19 16 15 11 7 7 11 12 6 3 3 3 5 10 14 11 14 16 14 26 27 14 11 12 16 21 18 15 12 11 12 10 9 9 10 10 7 5 6 12 12 11 13 10 11 13 8 6 6 6 7 4 6 6 2 2 0 2 2 2 4 8 9 10 12 12 9 7 8 8 8 9 9 10 9 5 5 8 9
16 19 19 20 20 20 20 19 17 17 16 14 13 11 9 9 9 9 6 3 3 3 10 12 7 10 14 16 23 17 13 10 7 15 21 17 17 12 9 10 7 10 12 12 11 6 5 6 11 13 12 14 11 10 12 9 6 5 7 9 8 8 7 2 3 1 3 3 1 2 7 8 5 9 10 5 4 8 6 6 10 9 9 8 7 9 10 9
17 17 20 22 20 23 21 12 15 22 18 13 17 18 13 12 13 12 5 2 1 3 11 13 7 15 18 14 16 14 14 9 2 14 19 12 14 10 9 7 1 9 16 12 6 3 3 3 8 13 12 14 12 10 12 11 7 4 7 10 8 8 7 4 3 2 4 3 1 1 5 7 3 5 7 3 4 9 7 7 9 9 7 7 8 8 8 8
15 15 19 22 22 25 16 7 17 22 11 11 22 25 20 19 19 14 4 2 3 4 10 9 6 19 20 14 18 15 12 10 6 14 14 8 11 8 9 10 3 7 11 7 4 2 5 7 8 11 11 12 11 9 11 12 9 3 4 9 8 7 8 5 3 3 2 3 1 1 2 7 8 6 5 3 4 8 10 9 8 8 10 9 9 9 8 9
13 14 17 19 23 21 13 14 21 14 9 16 20 21 26 29 24 13 3 2 2 3 7 3 4 15 15 15 18 9 10 16 11 11 8 5 8 6 9 13 10 13 10 6 5 0 4 11 13 13 11 10 10 9 11 13 7 0 3 8 7 6 6 4 2 2 1 3 4 3 3 5 9 4 3 3 6 10 12 13 11 9 9 9 9 9 9 10
12 14 13 17 21 16 14 21 21 12 18 26 19 16 27 28 18 8 2 3 1 2 2 3 7 13 14 16 14 7 12 13 7 8 6 3 2 1 5 10 14 17 8 2 4 1 2 7 12 14 11 8 6 7 12 13 5 2 5 7 5 4 4 2 2 1 2 3 7 4 5 5 9 7 5 4 6 10 11 11 11 9 8 7 7 8 9 8
12 13 11 15 17 13 13 16 17 19 27 32 26 22 22 16 7 3 3 3 1 1 1 4 8 13 20 19 10 11 15 7 7 11 5 2 2 2 4 5 7 13 5 3 4 3 2 1 4 6 5 4 7 6 5 8 6 8 8 7 7 4 3 2 0 2 1 5 5 6 8 6 7 6 5 5 4 7 10 10 9 8 8 7 6 6 5 3
10 10 10 13 12 10 9 7 14 25 31 36 34 23 14 6 1 3 4 2 2 2 3 4 9 14 22 21 11 13 15 9 12 14 6 4 4 5 8 6 3 6 5 3 4 2 4 4 3 1 1 5 10 5 3 4 7 8 6 6 6 3 2 1 1 1 4 5 2 4 4 6 9 4 1 2 3 4 8 10 12 11 9 8 5 3 2 1
8 8 10 10 9 10 7 5 14 22 29 39 33 15 6 3 3 3 3 2 2 4 3 5 11 15 21 21 13 14 15 13 15 16 13 11 7 8 11 9 7 7 7 9 7 4 4 3 2 2 2 4 11 8 3 3 5 4 5 7 6 3 2 3 2 3 6 3 2 2 1 6 10 5 5 8 7 8 8 9 11 10 8 7 3 1 1 2
7 6 8 8 9 11 8 7 11 15 25 33 22 7 4 4 5 4 4 3 1 2 3 5 11 17 21 18 12 13 13 13 16 16 14 12 10 9 6 7 9 4 5 11 9 6 4 2 2 4 2 5 10 10 7 5 5 6 7 8 6 5 5 7 6 4 5 3 2 2 1 5 7 4 8 12 10 8 7 8 8 7 7 7 4 3 4 5
7 6 6 7 10 11 10 10 12 14 21 21 12 5 5 5 5 4 4 4 0 3 5 8 12 17 19 14 13 16 11 11 18 17 14 11 9 9 5 8 13 4 5 9 5 7 8 2 6 10 5 6 11 9 9 10 8 8 8 6 5 5 4 6 6 5 3 2 2 3 2 5 3 2 3 7 6 6 5 6 6 6 7 7 6 6 7 8
9 6 5 5 9 12 11 11 14 18 16 10 6 6 5 5 4 3 5 4 1 4 7 10 13 16 13 8 13 14 4 8 20 16 13 12 10 12 9 10 17 10 9 9 4 7 11 3 2 3 2 9 11 5 8 13 10 7 4 3 5 3 1 1 0 1 2 2 3 5 3 4 2 5 9 7 5 7 7 5 5 6 6 5 6 7 7 7
10 6 3 3 7 11 12 9 13 19 14 6 4 5 4 2 1 2 6 5 4 8 11 11 13 13 10 6 11 11 3 6 19 14 9 11 9 13 12 9 12 12 10 10 4 5 10 3 3 3 2 8 7 5 9 10 7 5 4 5 4 1 2 2 1 3 2 3 4 4 4 4 3 8 11 8 7 9 7 4 4 6 5 4 5 6 5 6
9 6 3 3 8 11 12 9 11 14 10 4 4 4 1 1 1 2 2 2 3 8 11 10 9 7 6 5 8 12 9 8 14 11 7 9 8 12 13 10 13 16 13 9 3 2 6 4 2 1 5 4 1 4 8 4 2 6 6 6 4 2 2 1 2 2 3 6 3 3 7 6 4 5 3 4 8 10 9 7 5 4 4 4 5 5 4 4
6 5 3 6 10 9 10 12 12 9 5 4 7 6 1 1 3 2 1 1 3 7 8 7 4 2 5 6 7 13 17 13 10 10 9 8 8 12 15 12 14 18 13 7 3 3 6 6 2 1 3 3 1 4 8 4 2 2 3 6 5 2 4 4 3 3 5 6 3 2 5 6 7 6 2 4 6 6 8 8 7 6 5 4 5 5 4 4
4 3 1 5 9 9 12 16 13 6 3 5 9 7 3 3 4 4 1 1 1 5 8 5 2 2 3 7 10 14 18 16 13 12 10 9 7 13 18 12 12 19 15 6 5 6 5 4 4 1 0 3 3 6 10 8 3 0 2 5 2 2 3 4 2 2 4 5 4 2 2 3 7 8 9 12 11 8 8 7 7 7 5 4 5 4 4 4
3 2 1 2 7 12 17 15 9 4 4 6 7 5 4 3 4 5 3 1 1 1 5 4 2 4 4 6 10 13 13 15 16 11 8 9 7 11 19 14 12 19 15 5 5 7 4 2 5 4 1 5 7 6 9 11 9 5 6 8 6 2 1 2 2 1 1 4 4 3 4 3 3 5 10 15 14 13 11 9 8 3 1 3 5 4 4 4
2 2 1 3 11 19 19 11 5 5 4 4 6 5 4 3 4 5 4 4 2 2 1 1 1 4 6 7 9 9 9 12 13 9 6 10 8 7 15 17 15 18 13 5 7 8 3 3 7 7 5 7 5 1 1 6 9 9 8 9 10 7 4 5 6 3 1 3 2 2 5 4 4 4 8 11 11 11 8 7 7 2 1 4 4 4 4 4
3 2 1 6 19 23 16 6 4 5 4 4 6 6 5 4 5 6 5 5 3 1 3 2 1 2 4 8 9 8 10 10 12 10 7 12 13 7 12 18 17 18 14 7 6 3 1 4 6 6 5 4 1 2 1 1 3 5 5 7 10 9 8 8 6 4 4 2 1 1 5 4 6 5 6 7 6 4 2 2 5 2 2 4 4 3 4 5
4 2 3 11 26 23 10 4 5 5 4 4 5 6 5 3 3 5 6 6 4 2 1 2 3 4 3 5 8 9 11 10 12 13 8 10 10 5 13 21 18 17 13 7 7 4 2 5 6 5 2 1 2 1 2 3 0 5 8 6 6 8 6 3 1 2 5 4 3 2 6 5 4 4 3 3 4 4 1 1 3 3 3 5 4 3 4 4
4 1 3 12 27 20 6 4 8 7 7 5 5 7 5 2 3 6 7 8 5 4 2 4 5 5 2 3 7 11 12 9 10 11 6 7 5 5 16 23 20 17 12 7 9 7 3 5 6 6 5 2 2 3 3 4 5 7 6 4 6 9 5 1 1 1 3 6 7 6 8 5 2 2 1 3 5 5 2 1 3 5 4 4 2 2 4 4
4 1 2 7 17 13 3 4 8 8 9 8 8 10 8 4 5 7 8 9 7 6 4 3 5 5 3 4 7 12 12 5 6 7 3 5 2 2 16 24 21 19 10 7 10 7 3 5 7 8 9 8 9 7 6 7 6 3 3 7 10 12 10 6 2 3 6 7 10 11 8 1 4 2 2 3 5 5 2 4 4 5 4 3 2 3 4 3
4 3 2 3 5 5 3 3 5 6 7 9 7 8 10 7 6 7 9 9 8 8 6 3 3 5 7 8 7 12 12 1 3 6 6 6 3 1 13 23 22 18 11 12 13 7 3 5 8 10 11 10 7 4 5 9 9 7 8 11 12 12 13 9 5 7 7 4 9 13 6 2 1 5 4 4 4 5 3 4 3 4 4 4 3 3 4 3
4 3 5 5 3 4 4 4 5 6 7 10 7 6 12 12 8 6 8 8 7 10 8 5 5 5 8 12 8 10 12 2 3 10 9 6 3 2 9 17 18 17 13 12 12 8 3 7 13 15 11 3 1 3 10 13 12 14 13 13 14 13 13 12 12 14 7 4 9 10 6 9 9 9 7 5 5 5 4 4 4 2 2 3 2 2 4 4
3 2 5 6 3 5 7 7 8 9 10 12 8 7 13 15 11 8 8 7 7 10 8 7 10 12 11 14 11 8 9 4 3 11 9 5 6 7 8 11 12 15 13 7 7 7 5 9 14 12 6 1 3 3 12 14 13 15 17 17 17 16 16 16 19 18 10 8 13 6 10 16 13 11 9 6 5 5 3 3 1 1 0 3 2 2 4 3
3 1 3 6 4 6 10 11 13 13 14 13 9 8 13 15 16 13 8 7 8 11 10 8 12 16 14 12 11 9 10 8 6 10 11 10 12 12 10 9 9 12 14 10 7 6 5 8 11 10 5 2 3 1 8 12 11 13 18 20 19 18 18 19 22 20 13 14 16 4 6 15 11 11 11 7 5 4 1 1 2 2 3 4 3 4 4 4
4 1 3 5 5 6 8 10 12 12 12 12 10 10 11 14 19 17 10 10 9 11 13 13 13 16 16 15 12 12 16 17 16 18 18 16 15 13 12 12 11 13 14 11 8 8 7 6 9 9 4 1 2 1 3 6 9 11 14 14 15 16 19 21 20 15 10 15 19 12 12 16 9 11 9 6 3 2 2 5 4 3 4 5 5 5 5 6
5 1 1 3 5 7 6 7 9 10 11 11 11 11 11 15 20 18 12 13 14 13 16 20 19 14 13 17 18 19 22 23 21 22 23 20 18 14 10 9 12 15 14 10 9 9 8 4 5 7 6 3 2 3 5 5 5 6 8 12 18 20 17 16 14 11 13 19 21 17 16 13 6 11 8 5 3 5 9 9 5 4 6 6 6 7 7 9
6 2 2 1 5 8 8 6 8 10 9 10 12 14 14 16 21 20 12 10 14 16 17 22 21 12 9 19 26 25 21 17 11 11 12 11 11 9 6 10 16 17 13 10 7 7 8 6 5 8 8 3 1 5 7 8 5 5 11 18 22 17 10 8 11 17 22 20 16 15 14 6 7 11 8 6 7 10 11 9 6 7 7 6 8 9 9 10
Wind_Direction
194 195 199 199 204 217 217 202 201 206 204 198 195 195 195 195 193 192 193 194 196 197 191 183 180 175 176 178 171 170 174 173 174 178 187 202 208 200 186 177 159 154 160 162 166 160 142 133 127 113 96 59 10 335 351 3 14 276 235 225 231 179 137 95 71 14 315 3 13 126 215 229 191 165 168 172 208 170 156 191 189 197 228 254 20 30 160 153
177 177 176 173 186 204 219 213 204 207 204 198 193 193 194 194 193 193 193 192 194 195 189 180 177 174 173 173 168 169 171 167 167 181 194 191 192 193 186 181 164 152 151 151 160 157 141 120 121 114 53 50 349 358 341 333 354 345 25 228 227 111 102 96 76 53 320 343 350 331 202 241 239 159 170 207 199 179 205 205 197 217 202 186 99 143 161 159
167 169 171 174 186 198 216 215 207 212 205 197 194 191 192 193 192 193 192 190 192 192 186 180 177 176 177 174 167 166 162 157 173 197 198 187 181 182 182 185 176 162 155 151 158 161 161 156 140 130 66 50 3 12 185 339 353 16 276 241 165 99 121 161 187 92 134 320 327 340 134 222 244 149 175 219 207 193 220 215 196 218 204 169 137 156 166 167
188 208 210 203 209 204 211 214 212 219 208 198 194 191 191 192 191 191 191 189 190 190 185 180 178 179 181 175 170 166 151 149 196 201 197 192 185 181 181 184 180 177 175 167 162 162 161 151 140 130 93 93 350 212 179 148 8 157 256 276 109 128 166 155 190 159 178 253 312 1 135 225 208 167 204 213 214 216 228 223 212 219 197 165 150 165 172 172
203 215 217 213 216 211 212 225 231 226 220 204 194 191 191 190 192 190 188 189 189 188 185 182 181 182 183 179 175 166 150 162 197 190 192 192 185 184 182 182 181 178 177 170 156 152 149 140 131 107 84 127 161 179 177 135 84 198 221 8 95 177 177 133 174 188 192 223 235 191 240 288 123 192 214 214 228 236 244 233 224 225 182 160 158 168 174 177
197 199 202 205 209 208 207 220 239 237 247 221 193 190 192 190 190 189 187 188 187 187 185 184 183 183 184 180 175 169 168 176 167 180 188 186 179 182 182 180 177 173 170 157 145 144 143 143 145 136 95 115 169 170 152 126 148 221 184 71 162 215 335 112 159 169 201 243 240 189 276 7 210 227 209 220 236 252 36 342 264 236 154 147 152 166 177 183
185 183 189 198 204 212 216 222 238 242 256 246 200 190 192 190 189 188 188 188 187 186 185 185 184 184 180 173 169 177 193 203 141 179 184 178 175 178 177 174 173 169 164 151 148 151 145 153 157 145 123 103 200 156 112 130 159 218 192 154 178 233 287 326 173 177 207 252 285 33 204 219 235 242 166 227 238 215 53 2 330 181 145 145 154 171 184 188
176 178 185 198 206 212 215 215 223 227 244 258 227 197 191 190 190 188 188 188 186 185 184 185 184 180 172 165 166 188 206 205 160 179 180 174 170 174 172 169 171 170 168 160 156 153 146 157 155 148 144 127 169 109 96 170 165 213 205 154 153 233 277 308 279 246 216 244 279 226 233 235 239 264 271 241 237 211 137 75 106 150 150 160 170 177 186 191
174 179 184 190 193 192 192 194 200 206 223 249 242 216 191 187 189 188 186 187 186 184 183 182 181 175 169 165 168 189 199 196 174 175 175 173 169 170 169 164 166 170 170 166 158 155 157 163 155 161 145 123 149 125 203 216 195 212 193 156 181 260 290 317 274 247 187 221 179 232 251 233 213 297 263 244 232 191 155 124 134 152 163 178 182 182 187 192
171 172 177 183 186 191 194 194 196 193 196 218 229 235 204 185 186 187 184 186 186 183 181 182 178 173 169 168 175 186 191 193 187 173 171 172 168 166 167 165 168 168 160 155 156 159 164 155 145 148 115 107 156 124 176 221 204 167 151 216 245 278 295 303 276 253 194 211 186 244 281 141 169 230 250 232 135 162 160 148 154 170 181 188 188 188 191 195
169 168 177 184 188 196 199 198 198 193 191 204 221 240 226 188 183 184 183 183 183 181 181 182 178 174 171 172 180 177 178 186 182 171 170 170 166 164 168 169 173 167 152 149 155 156 151 140 134 132 121 127 142 116 198 216 118 108 126 237 222 266 261 223 258 244 237 222 184 241 281 193 158 220 239 108 92 183 174 160 166 193 195 190 192 189 194 203
170 167 169 172 173 179 184 189 192 197 204 218 236 244 241 192 183 182 182 180 180 180 180 181 177 172 168 173 188 163 167 178 173 168 168 168 166 166 169 170 173 168 155 149 151 149 145 144 135 110 143 154 135 127 176 171 172 102 357 254 224 272 254 219 233 228 237 231 165 202 273 231 193 219 227 111 129 174 176 176 174 203 205 193 196 191 199 205
165 166 166 168 173 175 175 183 189 197 207 217 244 255 269 198 183 180 181 179 178 178 177 178 174 169 166 173 180 149 165 176 171 168 166 167 166 165 168 170 172 172 166 163 161 152 151 151 135 97 118 149 124 125 133 123 174 146 81 288 282 279 258 211 71 177 223 224 151 183 269 242 205 218 201 123 157 166 182 195 183 195 201 200 198 198 207 204
155 166 177 181 190 191 182 184 190 197 202 205 237 246 274 211 185 181 180 178 174 174 175 173 169 168 170 164 136 152 167 174 170 168 166 165 159 151 160 167 170 174 176 174 167 157 157 147 122 102 74 60 119 140 124 105 170 154 131 200 269 255 229 88 140 187 205 192 138 198 253 258 240 227 166 126 176 184 210 208 189 193 192 204 203 203 210 207
153 159 172 183 194 199 196 193 193 199 199 189 203 218 259 217 185 181 180 176 172 171 170 169 169 169 169 162 153 162 165 167 167 168 170 165 155 142 148 159 162 168 171 170 162 152 148 136 114 108 88 12 139 137 121 108 120 143 186 185 191 228 246 295 201 198 215 130 154 207 245 266 272 273 94 95 202 204 232 219 192 198 196 204 206 207 213 212
159 155 163 177 187 192 197 197 195 197 197 192 197 194 217 231 183 179 179 173 170 169 165 168 176 173 167 158 154 159 159 163 170 170 171 169 162 147 139 145 141 144 148 143 142 139 133 121 100 105 112 152 162 142 133 157 158 183 231 204 169 204 235 294 140 58 325 121 184 218 258 293 272 302 67 80 216 208 234 231 205 206 208 210 209 209 213 212
160 155 162 176 182 175 176 180 182 184 184 185 185 190 211 264 185 175 174 171 169 168 166 170 175 172 158 136 151 166 164 162 171 168 166 171 167 150 136 133 123 121 115 113 131 134 117 102 110 129 113 165 171 157 161 193 201 185 210 209 187 204 197 192 179 103 98 185 210 218 243 264 265 284 40 122 192 214 234 240 227 218 214 209 211 211 214 218
164 155 159 174 183 179 168 161 162 166 164 160 153 167 192 237 209 173 165 161 159 160 166 170 167 171 196 173 165 163 159 156 163 164 162 168 167 153 139 127 128 127 114 106 133 138 83 91 158 160 155 179 165 170 187 206 207 181 178 189 188 204 204 211 205 125 125 183 220 222 235 256 265 274 267 169 160 224 241 248 243 235 228 214 214 218 217 222
170 160 157 168 173 180 184 179 170 163 156 156 156 147 151 169 275 186 160 152 151 158 162 167 172 184 178 170 156 141 152 155 154 160 157 157 159 150 139 134 137 141 138 142 165 171 142 114 173 175 168 175 168 185 201 210 201 178 176 184 180 194 206 215 196 116 322 218 230 235 240 256 260 264 265 216 149 230 251 257 255 239 233 225 218 222 220 224
169 163 159 165 162 164 176 187 188 176 164 162 163 147 108 124 342 271 164 152 168 180 160 167 174 96 105 141 136 133 147 152 149 158 156 154 151 139 134 138 131 146 160 156 156 164 160 160 189 188 173 176 180 191 196 168 162 172 171 177 187 207 206 189 165 117 148 256 244 238 245 256 258 259 263 244 144 238 249 246 249 237 228 227 223 225 222 225
160 161 156 161 164 160 166 182 188 186 186 174 162 153 129 168 149 310 228 165 177 179 151 161 147 64 128 142 140 134 134 143 139 149 156 154 148 140 149 160 143 167 174 145 130 127 190 193 193 186 180 183 187 189 179 154 168 178 177 180 188 215 219 154 136 114 141 250 250 227 253 259 258 259 261 251 217 247 247 240 246 243 231 226 230 232 228 230
151 158 153 156 167 164 165 179 177 175 185 177 165 162 100 157 161 64 6 175 181 162 136 160 131 75 135 140 143 135 116 128 137 152 163 159 159 158 172 172 155 164 161 134 125 148 199 207 183 175 177 176 176 177 176 179 186 188 182 187 191 191 218 148 128 119 152 243 259 237 268 266 262 263 260 254 250 250 246 241 245 248 242 231 228 230 229 232
149 156 154 153 163 166 166 170 158 152 162 163 158 156 112 149 175 191 8 51 180 158 161 167 145 130 140 142 151 142 127 140 147 165 173 169 170 162 156 168 156 147 160 158 155 165 188 199 173 164 162 158 165 180 184 182 184 194 184 192 198 153 186 218 156 131 155 246 292 293 281 271 262 262 257 246 247 251 244 242 245 246 248 245 237 233 228 228
146 153 158 154 155 164 168 162 149 142 155 166 174 174 138 148 171 173 44 4 212 178 174 164 139 148 149 146 158 151 135 147 151 164 177 175 160 146 156 166 149 145 171 173 165 165 155 154 158 161 169 168 169 180 182 182 182 200 203 203 197 162 193 230 83 119 194 175 316 300 283 269 243 241 247 233 222 247 241 235 247 239 238 249 258 253 236 229
144 149 157 158 156 159 161 154 148 157 167 177 199 204 181 167 157 136 106 353 278 176 173 163 135 154 147 144 160 146 115 137 147 156 174 178 155 144 160 163 152 165 174 167 163 169 152 142 151 157 171 171 168 180 184 187 185 201 215 217 213 185 185 153 85 299 244 205 51 337 278 268 221 218 242 233 212 248 234 216 243 241 226 228 237 245 235 231
142 149 154 158 159 156 156 152 148 159 164 169 181 181 171 161 151 142 116 1 276 181 172 167 161 162 152 150 158 133 128 152 123 147 165 178 162 152 154 157 193 172 166 160 162 172 149 157 161 159 166 170 174 188 186 185 192 207 201 203 209 189 177 164 144 225 254 253 49 54 268 276 276 234 238 226 234 258 252 231 243 248 239 220 221 236 228 228
137 147 155 159 161 157 156 152 151 160 168 153 150 149 150 154 148 141 119 323 259 191 165 161 174 167 160 160 157 144 150 148 114 157 169 174 170 167 161 164 163 157 156 151 169 179 134 150 167 157 155 168 186 194 184 188 199 204 158 169 179 182 184 178 165 221 275 323 300 144 256 279 282 260 224 203 238 261 261 254 245 244 250 237 226 231 228 232
129 141 153 160 161 158 156 151 149 157 163 148 141 135 140 145 141 132 127 245 213 153 159 148 156 160 152 157 161 143 130 133 132 169 171 156 173 179 176 176 158 147 155 167 180 245 130 159 170 163 162 183 195 180 171 185 199 46 120 156 166 172 174 160 165 219 10 339 265 178 127 267 273 257 183 183 234 246 252 251 241 231 238 237 234 233 230 235
123 134 143 157 158 152 151 154 153 159 157 155 158 146 131 126 122 117 174 221 149 70 160 142 144 152 144 153 163 135 125 133 133 145 142 138 151 93 171 171 150 142 149 199 162 131 154 176 174 170 179 192 168 142 167 186 190 91 121 121 110 109 97 109 185 141 79 267 258 200 159 245 279 266 225 193 219 232 237 246 242 230 229 229 230 233 230 234
122 125 129 152 158 147 140 145 148 154 155 154 159 155 132 114 100 123 184 199 125 77 197 158 157 157 149 149 160 150 139 129 123 130 135 143 109 58 86 82 118 137 130 37 96 105 63 68 176 178 193 161 108 89 153 176 145 123 131 109 94 96 79 85 76 69 186 253 245 186 177 223 274 273 230 208 221 229 228 240 244 237 239 237 228 231 233 233
118 117 124 141 150 148 138 128 144 155 155 151 152 153 138 113 105 172 178 149 89 187 211 161 158 159 153 148 151 155 140 124 138 140 145 152 140 142 124 87 67 124 136 134 112 83 95 127 171 178 293 125 115 92 50 112 140 137 139 133 121 112 116 147 89 120 231 249 188 157 171 224 239 244 268 285 317 269 240 240 241 237 235 234 230 227 226 225
113 118 126 129 136 146 145 139 149 158 156 146 144 149 139 130 204 198 168 126 130 199 202 166 161 160 157 151 148 154 142 138 152 152 157 162 161 163 159 163 158 142 175 178 150 117 116 145 154 74 280 173 141 140 102 112 170 165 144 151 147 124 149 198 192 203 235 232 118 93 93 238 246 257 277 273 266 252 244 241 245 246 241 241 244 228 215 236
120 134 130 125 132 135 127 138 153 161 154 142 136 149 151 160 195 174 149 163 151 160 169 177 169 160 159 156 148 146 138 145 159 158 158 159 160 169 165 163 164 156 175 161 137 132 129 351 236 160 196 212 174 165 160 160 180 176 164 168 168 152 175 206 197 209 240 207 126 85 135 255 273 274 251 257 258 249 242 242 247 254 259 267 285 292 274 260
123 143 139 130 139 140 128 136 160 168 157 144 136 159 176 182 180 129 145 188 114 113 158 170 168 166 165 160 153 149 138 152 160 158 158 155 161 175 165 171 183 172 108 139 140 161 162 195 205 179 158 183 190 185 161 150 164 185 180 186 200 186 198 209 192 197 207 116 124 142 185 250 268 39 272 266 284 285 264 252 256 262 265 275 287 281 271 263
117 128 143 146 158 163 148 140 157 163 160 151 141 163 188 183 167 147 157 174 187 151 163 169 170 172 168 155 158 155 123 159 161 157 164 164 170 178 170 183 191 173 138 155 166 175 178 183 173 165 145 172 179 173 147 149 165 188 170 185 224 225 174 173 248 182 128 91 184 185 226 260 295 315 286 260 258 261 252 247 254 262 257 252 262 260 255 264
114 105 119 169 188 180 165 158 160 159 161 163 160 180 202 171 146 176 157 156 177 156 157 175 182 176 166 154 165 159 57 148 158 156 170 171 174 180 175 180 187 180 167 159 135 175 185 171 35 34 119 177 171 137 160 169 161 158 172 192 205 16 74 134 88 56 85 241 218 185 242 275 298 284 269 248 247 250 246 241 239 252 249 235 254 254 241 252
108 98 112 217 215 185 170 169 162 159 162 170 197 198 181 81 167 166 142 138 164 155 158 175 185 174 160 156 167 155 126 136 157 157 163 174 181 180 177 182 187 189 183 161 128 196 168 126 22 29 136 171 338 123 168 210 150 155 188 180 139 31 340 212 197 130 183 237 236 189 239 256 250 256 256 234 251 254 249 238 220 228 234 232 254 260 251 249
98 107 139 227 219 184 166 170 166 163 153 162 207 214 147 132 187 186 294 9 148 162 167 174 176 167 162 161 164 157 148 149 165 160 156 176 186 178 178 182 190 194 186 160 152 173 150 121 70 327 137 128 352 160 173 228 276 179 192 165 150 214 210 191 200 177 191 231 256 215 237 250 226 220 216 211 230 250 245 232 220 223 220 228 253 256 261 269
102 109 124 234 216 180 165 169 167 162 148 171 207 215 173 164 189 189 247 359 169 176 176 178 148 121 193 172 158 164 163 161 165 162 166 184 182 180 183 177 180 188 184 177 179 159 152 141 127 152 110 130 171 197 187 187 187 356 199 178 185 288 202 184 191 183 193 215 241 236 231 236 212 201 210 222 231 240 236 232 236 231 205 211 250 257 259 267
113 109 58 192 182 166 159 160 158 150 167 191 208 208 175 162 186 190 175 141 284 203 183 196 138 132 188 186 168 174 170 160 164 168 174 176 157 171 185 182 172 177 174 172 174 154 151 183 139 129 149 173 185 209 198 181 171 176 191 187 189 194 182 210 204 196 219 210 223 252 251 229 191 182 205 221 237 242 238 245 254 259 120 210 249 265 271 275
120 120 63 142 160 158 151 145 157 168 182 210 213 213 186 145 159 182 172 161 191 357 55 229 185 151 165 174 183 187 166 155 168 175 167 171 169 177 188 184 166 162 160 155 170 169 170 161 140 141 174 188 183 267 231 185 183 189 194 194 194 185 167 195 202 179 207 231 207 254 270 236 159 170 207 215 232 238 234 246 253 251 141 236 250 258 272 281
123 121 86 154 160 156 147 142 170 178 199 211 209 210 184 154 163 175 168 172 192 22 23 326 235 181 179 178 185 186 165 161 173 180 183 188 190 187 179 174 158 154 161 159 159 161 70 108 120 133 171 177 97 30 351 282 219 211 224 212 201 196 190 201 212 167 162 217 89 38 288 250 156 168 207 212 232 251 235 249 256 239 207 247 265 260 262 269
134 131 77 154 165 160 145 155 173 185 218 213 218 221 197 174 171 164 166 184 187 126 60 274 188 175 232 200 186 184 172 168 181 185 185 185 183 155 162 166 155 155 165 156 149 162 139 126 111 101 114 58 45 84 50 14 321 222 233 219 200 211 205 207 285 152 169 196 165 200 269 248 158 158 211 229 266 278 283 261 269 281 267 252 258 263 260 264
146 144 42 157 173 173 154 155 171 193 210 194 207 218 216 237 196 171 172 183 182 150 172 243 200 178 227 207 191 194 181 172 193 198 177 162 163 132 160 164 158 165 181 170 162 176 169 144 138 130 136 170 190 181 196 201 202 217 214 169 196 213 188 97 7 149 209 206 180 210 256 241 141 91 232 242 264 270 266 159 237 255 260 251 251 283 274 277
144 158 13 168 184 193 211 186 176 191 196 184 194 202 200 217 210 194 187 181 183 177 176 240 220 175 176 208 201 199 197 184 184 191 154 133 136 140 164 165 165 175 182 140 144 158 155 160 163 154 158 181 192 194 197 179 172 204 170 158 195 202 188 195 207 207 230 204 182 207 233 200 86 81 250 241 255 270 223 164 216 245 263 280 282 277 275 272
150 161 166 171 195 216 261 245 192 189 184 180 196 201 195 209 217 198 194 191 190 189 195 260 245 170 178 203 208 199 203 227 96 164 156 139 140 207 170 169 173 177 156 125 137 142 137 175 188 190 190 193 192 168 120 121 142 183 187 181 194 198 197 202 208 223 223 182 200 218 229 339 119 165 219 235 220 249 221 163 215 240 240 254 246 255 275 266
169 174 172 165 182 211 236 251 214 201 183 179 186 185 191 208 220 197 197 202 184 181 200 228 227 216 192 188 203 205 194 167 100 160 157 136 108 88 162 172 176 168 142 133 149 142 128 191 198 202 206 213 17 131 133 135 163 184 182 184 192 193 194 196 213 223 193 152 234 221 197 251 230 171 197 221 192 223 222 193 224 232 214 240 237 260 278 267
180 190 185 175 166 192 204 212 209 207 194 188 188 180 187 200 207 196 196 205 190 181 193 206 213 229 217 187 190 200 179 155 151 161 150 134 132 128 152 177 182 164 144 148 179 159 157 198 196 192 191 51 25 149 155 156 172 180 179 187 190 189 191 199 219 222 182 196 244 193 163 228 224 171 194 216 198 228 223 186 225 43 285 257 244 259 272 272
183 220 197 192 188 186 195 200 201 206 201 194 194 192 191 195 202 206 198 188 198 194 191 203 210 219 226 206 190 188 178 172 175 171 164 158 154 149 154 174 192 176 163 170 188 173 173 193 183 171 159 92 43 161 176 169 168 178 188 191 186 188 196 206 221 220 199 225 252 232 199 243 228 181 200 210 204 226 182 147 209 179 212 229 220 234 246 255
182 186 176 198 216 199 202 203 198 205 208 202 203 202 197 195 200 210 206 185 192 189 188 208 212 204 210 212 203 201 196 186 181 178 171 161 161 168 171 175 178 176 176 177 176 186 196 178 158 156 153 92 35 23 186 168 165 182 194 189 182 192 205 216 225 220 208 242 256 254 260 264 226 177 196 210 210 254 257 239 236 211 213 215 215 228 238 247
190 256 142 200 220 206 213 215 200 205 208 204 207 205 202 202 201 207 210 199 197 186 183 203 211 202 201 204 207 213 207 198 192 182 173 169 171 175 175 170 163 165 176 180 170 184 199 166 136 158 179 208 190 140 133 118 129 175 199 195 193 198 206 215 220 208 207 230 241 240 251 256 186 153 172 183 183 241 250 247 248 244 233 222 220 225 230 237
189 284 357 222 229 213 211 217 211 214 208 200 206 204 203 205 201 202 208 213 211 202 193 199 201 197 203 207 211 215 209 203 198 174 165 167 163 158 145 151 162 167 169 166 164 175 177 161 152 173 186 196 146 142 137 116 115 198 216 207 200 197 199 209 218 215 215 222 227 227 235 233 125 136 158 172 187 214 233 236 229 233 236 229 227 228 231 235